Temp
73 75 75 75 75 77 71 72 63 67 68 73 76 76 78 84 83 87 86 82 82 90 89 89 88 87 88 88 88 87 84 82 82 82 83 82 81 81 81 80 79 78 75 75
67 76 76 73 77 78 78 77 74 74 72 74 77 80 82 82 87 86 86 86 85 87 90 88 88 86 87 87 88 88 84 83 83 82 81 81 80 80 79 80 78 77 75 73
55 67 67 65 73 75 75 79 76 69 76 77 77 79 82 82 83 84 85 86 84 83 87 89 88 88 86 87 88 87 85 83 83 82 80 80 80 79 78 79 79 76 75 75
56 58 50 64 78 81 78 77 79 76 76 77 76 77 80 83 84 84 83 86 88 87 84 85 90 90 89 88 86 85 83 83 83 81 81 81 80 79 80 79 79 76 76 73
50 55 58 69 73 73 71 72 76 73 77 79 78 75 74 79 84 84 89 89 87 87 86 86 88 90 88 86 85 85 83 82 82 82 81 81 79 80 80 81 78 77 75 75
51 49 50 61 76 82 79 60 75 75 74 75 76 64 68 74 81 81 84 88 93 93 85 85 84 89 88 86 86 83 85 84 84 83 82 80 81 80 81 79 75 74 72 72
54 52 58 69 80 80 59 59 73 75 74 73 68 70 75 79 78 78 82 82 88 85 82 86 82 86 87 87 86 88 86 83 83 83 82 81 81 81 76 74 72 70 70 69
55 49 48 73 74 68 64 70 73 74 75 72 71 75 76 79 79 79 77 81 81 81 80 79 84 86 83 83 85 84 81 83 79 82 82 80 77 75 73 72 71 69 68 67
57 57 65 70 70 72 73 70 70 70 71 74 73 70 71 75 77 77 78 78 78 77 77 76 80 85 80 77 81 80 80 79 78 77 77 76 73 71 70 71 69 68 67 66
55 63 68 70 73 72 71 69 70 71 70 70 65 67 67 69 72 74 75 75 77 78 76 74 76 77 78 79 80 79 77 75 74 73 72 72 72 71 70 68 67 67 66 66
54 58 58 67 69 69 69 70 68 68 67 66 65 64 64 64 66 70 71 73 74 75 75 74 76 76 78 79 78 74 73 72 71 70 66 61 55 60 67 62 66 69 67 66
49 52 53 57 63 67 67 67 68 66 64 64 63 62 63 62 64 66 69 69 69 72 73 74 74 73 73 75 74 71 69 69 67 68 65 63 60 57 48 47 47 49 53 61
54 55 55 58 64 66 67 68 69 67 66 63 64 63 62 60 62 63 66 69 70 69 70 71 72 72 72 72 71 70 68 67 67 66 66 65 65 62 57 53 47 45 46 51
57 57 54 55 56 63 67 69 69 70 69 68 64 64 62 60 63 64 63 66 70 70 70 70 71 70 71 72 73 70 69 61 70 69 69 67 66 63 61 59 57 55 47 48
56 57 56 57 58 61 63 65 64 64 65 66 67 65 65 63 64 65 65 67 68 68 68 70 70 70 72 72 73 71 71 70 72 70 70 69 69 67 65 64 61 56 49 48
55 56 56 55 56 57 58 59 57 59 62 64 65 64 63 64 65 66 66 65 64 67 68 68 68 70 71 70 68 67 66 68 70 72 71 72 71 70 67 66 61 57 55 53
51 51 53 52 53 55 55 57 58 57 59 60 62 65 64 63 64 65 64 65 65 65 66 67 68 70 71 72 72 69 65 67 70 71 70 70 69 69 72 68 64 61 60 57
54 54 55 54 54 55 56 57 59 58 58 61 63 64 64 65 63 63 64 66 65 63 64 65 66 67 67 65 70 72 69 67 69 68 68 68 70 70 68 69 67 64 63 58
56 55 56 57 59 58 59 59 59 59 60 61 60 61 63 64 64 63 64 64 62 62 64 66 68 68 67 65 64 65 67 71 66 65 69 66 67 65 63 66 64 61 59 56
57 61 62 62 64 62 61 63 62 60 62 63 61 61 61 64 64 62 62 62 62 62 65 66 67 66 66 64 65 66 67 67 65 63 61 62 63 63 60 61 64 64 63 61
64 64 62 62 63 63 64 62 62 62 63 65 63 62 61 61 63 62 60 58 62 63 64 63 61 63 62 65 66 66 66 64 63 61 60 60 60 60 63 61 65 65 65 63
63 63 63 63 63 62 63 63 62 62 62 62 63 64 62 61 61 61 60 61 63 61 64 62 60 59 63 64 66 64 62 63 62 62 62 64 63 62 63 62 63 64 63 61
59 61 62 63 62 62 63 63 63 64 63 63 63 62 63 63 61 60 59 62 63 62 64 63 60 59 59 66 67 67 68 68 66 66 64 66 65 66 63 63 64 66 63 61
61 63 61 63 64 62 59 60 61 62 64 63 63 65 64 61 61 65 62 60 61 61 62 60 60 58 59 65 65 69 69 68 65 64 65 60 64 63 63 61 62 66 65 63
60 61 61 62 61 61 59 62 62 63 63 62 63 64 67 66 63 65 64 64 60 59 62 58 61 60 61 63 64 63 64 63 63 64 64 63 62 63 62 61 61 60 61 64
59 61 60 58 59 61 62 61 59 61 63 61 62 63 66 63 66 67 63 62 66 65 65 64 61 62 64 63 63 64 64 62 62 62 62 63 63 62 62 61 61 61 62 61
61 57 60 60 61 61 61 58 59 58 58 58 58 61 63 63 63 62 60 64 65 65 63 63 61 60 62 61 61 60 61 60 55 59 59 59 61 60 59 59 60 61 61 61
MSLP
988.56 989.05 988.83 988.72 988.71 989.01 989.82 990.71 991.80 991.92 992.12 991.48 991.27 990.95 990.50 990.02 990.35 991.42 991.49 991.64 992.17 992.86 994.02 995.00 995.91 996.80 997.76 998.72 999.78 1000.89 1002.07 1003.04 1003.70 1004.48 1005.23 1006.14 1006.82 1007.30 1007.92 1008.52 1008.90 1009.52 1010.28 1011.01
988.26 988.23 988.23 988.03 987.80 988.12 988.40 989.31 990.05 990.66 990.37 990.39 990.55 990.33 990.41 990.08 990.12 990.39 991.24 991.62 991.71 992.42 993.17 994.15 994.96 995.87 996.72 997.80 998.69 999.70 1000.73 1001.55 1002.77 1003.73 1004.54 1005.22 1005.97 1006.56 1007.17 1007.77 1008.51 1009.08 1009.78 1010.47
988.71 988.14 988.34 988.04 986.26 987.32 987.45 987.63 988.52 989.08 989.29 990.29 990.37 990.48 990.36 990.29 990.05 989.84 990.64 991.28 991.66 991.88 992.56 993.35 994.11 994.81 995.77 996.34 997.51 998.67 999.52 1000.51 1001.53 1002.64 1003.44 1004.19 1005.07 1005.79 1006.38 1006.98 1007.73 1008.32 1009.08 1009.75
988.95 988.99 988.34 986.27 985.97 986.29 987.01 987.21 987.47 988.11 988.86 989.22 989.35 989.53 989.99 989.74 990.10 990.42 990.36 990.83 990.93 991.15 991.88 992.75 993.30 994.20 994.71 995.75 996.57 997.43 998.48 999.38 1000.22 1001.20 1002.21 1003.25 1004.14 1004.77 1005.56 1006.30 1006.86 1007.61 1008.36 1009.10
989.84 988.93 987.75 986.85 986.11 986.06 986.56 987.13 987.51 988.09 988.29 988.90 988.55 988.67 989.17 989.39 989.25 989.49 989.68 989.93 990.60 990.71 991.22 991.78 992.18 992.92 994.14 995.23 995.79 996.65 997.54 998.30 999.03 999.95 1001.04 1002.21 1003.06 1003.88 1004.70 1005.52 1006.33 1007.05 1007.72 1008.59
990.21 989.24 987.83 986.89 986.65 986.34 986.60 987.76 987.71 988.08 988.76 989.12 989.23 989.79 989.79 989.64 989.84 989.89 989.64 989.05 989.47 989.81 991.16 991.22 991.55 992.05 993.02 993.82 994.92 995.66 996.30 996.91 997.95 999.04 1000.05 1001.13 1002.17 1003.27 1004.05 1004.95 1005.87 1006.64 1007.48 1008.16
990.03 989.57 988.25 986.91 987.01 987.01 987.98 988.93 988.48 988.53 989.13 989.53 990.13 990.44 990.08 989.25 989.29 989.50 989.06 988.95 988.79 989.42 990.00 990.55 991.10 991.71 992.40 993.03 993.65 993.95 995.34 996.74 997.74 998.58 999.51 1000.46 1001.62 1002.71 1003.71 1004.71 1005.62 1006.48 1007.35 1008.23
991.39 990.25 989.29 987.83 987.90 988.32 989.06 989.10 989.34 989.49 989.79 990.14 990.35 990.44 990.31 989.87 989.30 988.97 989.05 988.91 988.76 989.04 989.41 989.48 990.21 990.92 992.16 992.67 992.83 994.11 995.21 996.24 997.34 998.23 999.29 1000.22 1001.25 1002.54 1003.65 1004.53 1005.49 1006.55 1007.42 1008.45
994.16 991.43 989.68 989.24 989.44 989.43 989.49 990.07 990.82 990.55 990.68 990.75 991.40 991.87 991.56 991.07 990.49 990.17 989.54 989.03 988.76 988.95 989.23 989.37 989.47 990.10 991.45 992.34 992.96 994.19 995.43 996.45 997.42 998.31 999.28 1000.27 1001.45 1003.04 1004.10 1004.78 1005.88 1006.87 1007.43 1008.12
995.20 991.94 990.43 990.58 990.33 990.79 991.37 991.63 991.91 992.00 992.14 992.20 992.74 992.89 992.67 992.30 992.08 991.84 991.39 990.48 989.75 989.59 989.87 990.63 990.35 991.01 991.61 992.20 993.11 994.22 995.77 997.02 998.09 998.86 1000.06 1001.23 1002.39 1003.16 1004.25 1005.41 1005.81 1006.63 1007.29 1007.83
995.79 993.86 994.09 992.17 991.89 991.93 992.11 992.81 993.18 993.44 993.75 993.72 993.67 994.30 994.22 993.98 993.60 993.42 993.05 992.52 991.50 990.66 990.71 991.44 992.04 992.42 992.49 992.88 993.81 995.10 996.56 997.89 999.03 1000.00 1000.97 1002.39 1003.75 1004.77 1004.95 1005.15 1005.73 1006.44 1006.97 1007.52
997.87 997.12 994.58 994.69 994.05 993.12 992.78 993.94 993.84 994.21 994.66 994.81 994.97 995.54 995.45 995.39 995.13 994.57 994.26 992.98 993.55 992.38 991.93 992.19 992.62 993.53 994.14 994.50 994.50 996.05 997.69 998.95 999.83 1000.81 1001.96 1002.78 1004.10 1005.52 1006.05 1006.42 1006.23 1006.37 1006.99 1007.57
998.67 998.27 997.31 997.64 995.15 994.85 994.81 995.42 995.45 995.41 995.55 995.91 996.11 996.16 996.25 996.37 995.98 995.70 995.23 994.69 994.52 994.22 993.72 993.36 993.69 994.30 994.91 995.51 996.11 997.00 997.97 999.38 1000.08 1001.20 1002.18 1003.07 1003.68 1004.86 1006.32 1007.14 1007.07 1007.28 1007.17 1007.80
999.11 998.68 998.32 1000.30 998.01 997.60 996.54 996.43 996.49 996.58 996.68 997.08 997.20 996.58 997.05 996.97 996.58 996.45 996.14 996.40 994.16 995.29 994.65 994.69 995.14 995.52 996.00 996.11 996.73 997.72 998.30 999.64 999.97 1001.23 1001.58 1002.89 1003.50 1004.42 1005.86 1007.20 1008.10 1007.78 1008.63 1008.93
999.16 998.59 1000.40 999.89 999.61 999.46 998.81 998.01 997.80 998.09 997.74 997.76 997.20 997.52 997.46 997.41 997.27 997.47 997.77 997.37 996.85 996.52 995.92 996.18 996.55 996.73 996.58 997.10 997.52 998.43 999.14 1000.07 1000.42 1000.91 1001.34 1002.10 1003.04 1004.49 1003.96 1005.60 1006.52 1007.74 1009.03 1009.66
1000.66 1000.58 1001.43 1001.34 1001.63 1000.50 999.93 999.71 999.04 999.99 999.13 998.43 998.54 998.32 998.28 998.21 998.21 997.93 998.12 998.17 997.95 997.77 997.33 997.50 997.61 997.29 997.58 997.94 998.21 998.81 999.86 1000.03 999.88 1001.08 1001.53 1002.10 1002.50 1003.38 1004.27 1004.72 1006.25 1007.23 1007.98 1009.14
1001.87 1002.23 1002.34 1002.25 1001.54 1001.12 1000.73 1000.76 1001.07 1001.18 1000.09 1000.05 999.29 998.85 999.23 999.22 999.16 999.16 999.19 999.26 998.92 998.75 998.58 998.54 998.42 998.26 998.47 998.57 998.85 998.88 999.82 1000.16 1000.19 1000.99 1001.87 1002.22 1002.35 1002.36 1003.53 1004.01 1005.56 1006.21 1007.13 1008.00
1002.80 1002.36 1002.05 1001.71 1001.42 1001.20 1001.29 1001.48 1001.47 1001.36 1000.96 1000.56 1000.07 1000.09 1000.10 1000.01 1000.12 1000.22 1000.33 1000.07 999.95 999.67 999.51 999.57 999.34 999.23 999.47 999.67 999.57 999.39 999.37 1000.27 1001.03 1001.50 1001.87 1002.01 1001.99 1001.80 1003.16 1003.51 1004.47 1005.59 1006.51 1007.48
1002.81 1002.18 1002.06 1002.10 1001.77 1001.73 1001.56 1001.42 1001.34 1001.42 1001.19 1001.05 1000.86 1001.32 1000.93 1000.56 1000.84 1000.98 1001.05 1001.03 1000.93 1000.76 1000.37 999.66 999.94 999.79 999.85 1000.17 1000.62 1000.35 1000.20 1000.59 1001.46 1001.63 1001.68 1001.84 1002.48 1002.64 1002.99 1003.55 1004.23 1005.30 1006.09 1007.22
1002.45 1002.31 1001.80 1001.91 1001.61 1001.73 1001.74 1001.58 1001.74 1002.02 1001.80 1001.15 1001.54 1001.86 1001.86 1001.58 1001.75 1001.75 1001.51 1001.53 1001.52 1001.28 1000.68 1000.24 1000.43 1000.52 1000.97 1000.87 1000.86 1000.98 1001.12 1001.23 1001.57 1001.97 1002.66 1003.38 1002.86 1003.22 1003.63 1003.85 1004.54 1005.19 1005.74 1006.65
1002.11 1002.24 1002.10 1002.00 1002.01 1002.11 1002.20 1002.15 1002.09 1001.92 1001.66 1001.70 1001.81 1001.94 1001.86 1001.98 1001.85 1002.17 1002.15 1002.23 1001.75 1001.54 1001.38 1001.41 1001.68 1001.19 1001.55 1001.29 1001.18 1001.20 1001.40 1001.78 1001.97 1002.73 1003.23 1003.37 1003.59 1003.69 1003.68 1004.14 1004.58 1004.88 1005.37 1006.12
1002.77 1002.50 1002.44 1002.40 1002.61 1002.72 1002.54 1002.32 1002.30 1002.31 1002.29 1002.22 1002.17 1002.07 1002.33 1002.33 1002.30 1002.34 1002.35 1002.27 1002.13 1001.99 1002.05 1002.11 1002.23 1002.22 1001.80 1001.59 1001.69 1001.59 1001.84 1002.31 1002.27 1002.64 1003.02 1003.26 1003.33 1003.79 1003.94 1004.10 1004.70 1004.61 1005.08 1005.70
1003.49 1003.26 1003.04 1003.05 1003.04 1003.02 1003.12 1003.08 1002.90 1002.90 1002.77 1002.73 1002.43 1002.43 1002.54 1002.68 1002.78 1002.83 1002.86 1002.65 1002.49 1002.46 1002.43 1002.33 1002.38 1002.22 1002.02 1001.68 1001.83 1001.66 1001.89 1002.06 1002.26 1002.39 1002.96 1002.95 1003.16 1003.38 1003.62 1003.84 1004.09 1004.56 1004.59 1005.05
1004.24 1004.06 1003.99 1004.01 1003.90 1003.90 1004.15 1003.82 1003.63 1003.26 1002.94 1002.85 1002.71 1002.73 1002.84 1002.95 1002.98 1002.85 1002.84 1002.90 1002.87 1002.94 1002.92 1002.82 1002.78 1002.65 1002.44 1002.31 1002.09 1001.90 1001.85 1001.88 1002.15 1002.45 1002.78 1002.56 1002.75 1003.15 1003.51 1003.88 1004.13 1004.11 1004.19 1004.34
1004.91 1004.91 1004.90 1005.00 1005.07 1005.11 1004.95 1004.58 1004.13 1003.85 1003.48 1003.60 1003.40 1003.40 1003.25 1003.22 1003.30 1002.98 1003.01 1003.17 1003.11 1003.11 1003.13 1002.89 1002.80 1002.86 1002.98 1002.88 1002.54 1002.39 1002.28 1002.30 1002.24 1002.46 1002.57 1002.96 1003.15 1003.06 1003.47 1003.88 1004.10 1004.02 1004.22 1004.36
1006.16 1006.32 1006.29 1006.33 1006.49 1006.18 1005.74 1005.26 1005.12 1004.80 1004.71 1004.61 1004.50 1004.31 1004.15 1003.99 1003.84 1003.99 1003.92 1003.76 1003.67 1003.68 1003.46 1003.35 1003.76 1003.62 1003.72 1003.62 1003.56 1003.39 1003.42 1003.14 1003.08 1003.07 1002.97 1002.97 1002.97 1003.04 1003.29 1003.41 1003.67 1003.69 1003.81 1004.04
1006.44 1006.46 1006.69 1006.67 1006.48 1006.29 1006.07 1006.04 1005.76 1005.58 1005.51 1005.47 1005.30 1004.89 1004.96 1005.07 1005.00 1004.87 1004.86 1004.59 1004.57 1004.19 1004.17 1004.05 1004.17 1004.26 1004.41 1004.52 1004.49 1004.66 1004.38 1004.48 1004.34 1004.47 1004.57 1004.08 1003.88 1004.19 1004.07 1004.18 1003.85 1003.87 1004.03 1004.25
Wind_Speed
26 19 14 24 14 25 23 20 16 12 17 15 10 9 9 11 9 9 7 8 10 20 19 20 20 20 21 21 22 21 21 20 21 19 18 16 16 15 15 13 13 12 11 11
17 26 25 26 19 20 25 22 19 17 19 6 6 10 12 9 13 12 7 8 12 19 22 21 21 20 21 21 22 22 21 22 19 18 17 16 16 14 14 15 11 12 11 10
8 7 5 20 27 18 11 17 18 17 18 7 9 5 8 4 4 6 8 10 9 10 19 19 20 22 21 22 21 21 21 20 20 18 17 18 15 14 13 15 11 13 11 12
7 6 9 7 10 15 15 8 12 10 9 11 12 10 10 8 7 5 3 7 11 9 9 14 18 18 20 18 21 22 20 20 20 20 20 17 17 15 15 12 15 12 13 11
5 11 2 7 7 5 7 14 1 5 5 5 7 3 5 4 9 13 11 9 9 6 9 11 18 21 19 18 19 21 20 20 21 20 19 18 18 17 13 13 10 10 11 11
3 7 16 3 4 6 5 3 7 10 9 8 8 3 5 4 5 5 7 10 13 13 8 10 12 18 20 21 20 20 22 21 18 19 18 18 17 16 12 10 8 8 8 9
5 6 5 4 13 4 8 7 7 10 8 8 4 4 6 9 6 4 8 12 16 15 10 16 10 13 18 20 22 22 15 12 15 15 16 15 15 12 10 10 10 9 9 6
5 3 4 3 5 7 8 6 7 7 6 4 2 6 6 9 9 8 2 5 9 9 9 10 14 16 16 16 14 12 11 14 12 13 12 12 15 10 11 11 11 9 9 6
10 3 1 9 7 7 9 11 8 10 9 9 14 14 15 16 13 8 7 4 4 7 6 5 10 15 14 10 14 13 13 12 12 11 12 12 13 12 9 10 8 8 7 6
8 8 10 5 5 15 15 15 14 12 11 13 15 11 13 14 14 12 12 7 6 12 13 10 9 9 11 13 14 16 14 13 11 13 12 11 8 7 9 7 7 7 6 6
8 9 21 13 12 14 15 14 14 15 14 14 14 14 12 12 11 10 9 11 7 10 12 11 11 11 10 13 17 17 15 13 13 11 12 11 9 5 5 6 5 8 5 5
4 11 9 13 9 7 15 12 13 13 14 15 15 11 12 12 10 12 11 11 7 10 13 12 16 15 14 13 17 17 14 10 9 9 8 9 9 8 18 11 11 12 6 5
5 4 15 16 21 19 16 10 9 10 11 12 10 11 11 8 12 12 13 8 6 5 3 8 10 12 11 12 13 12 13 12 10 9 9 8 9 8 8 7 14 13 12 11
6 5 15 15 10 18 14 15 16 14 13 12 6 10 9 8 8 12 13 9 7 7 7 9 9 10 8 11 13 13 13 11 10 8 9 8 9 9 8 6 3 4 11 6
12 16 9 9 11 12 14 15 16 14 13 11 13 13 9 7 9 7 7 6 7 4 7 9 8 6 8 8 9 8 11 7 8 7 9 10 9 9 10 10 8 6 4 5
8 13 10 12 7 10 13 13 15 11 13 14 10 10 10 11 11 10 8 7 9 9 7 7 7 7 7 7 7 8 5 7 10 8 6 10 10 9 9 9 8 7 7 5
8 7 6 5 8 9 11 7 8 8 10 12 13 8 8 8 9 10 9 8 9 10 11 7 5 6 6 6 5 5 5 2 8 5 7 5 6 7 10 10 9 8 8 8
2 2 4 6 7 7 6 6 6 6 8 9 12 10 8 7 4 5 6 7 7 8 8 7 7 6 9 8 7 7 5 5 5 4 4 5 4 5 8 11 10 8 6 8
3 5 4 1 2 3 3 5 5 7 7 6 6 9 11 7 7 5 4 6 6 6 6 7 9 7 8 9 7 4 4 4 4 2 3 5 5 5 5 7 7 6 7 8
7 3 4 4 3 2 4 5 5 4 5 4 3 5 2 4 6 6 5 7 5 3 4 7 7 6 5 5 3 2 4 6 8 7 6 2 6 8 5 7 7 8 9 8
5 10 5 5 8 6 6 7 6 7 7 6 7 6 6 6 7 6 5 4 5 5 7 11 6 5 5 5 5 5 5 4 7 5 5 4 4 4 4 5 4 6 6 7
9 8 7 7 6 6 5 5 6 6 6 6 7 6 6 6 7 7 6 4 3 10 5 5 4 4 5 7 3 4 6 4 5 5 4 2 4 4 5 2 4 5 7 6
7 6 7 7 7 6 6 4 4 4 6 5 6 6 5 4 3 4 4 5 4 6 4 4 7 11 10 5 4 4 4 5 3 4 4 4 4 4 2 3 4 5 5 6
4 10 8 8 10 8 8 6 6 5 5 8 7 7 4 3 3 3 3 3 6 5 4 5 7 10 10 5 5 4 4 5 4 4 3 5 5 4 3 2 2 1 4 7
7 9 11 12 12 7 8 8 7 9 7 7 8 9 9 5 2 4 3 4 5 3 1 4 6 9 5 6 7 5 1 4 3 2 3 4 3 4 2 2 2 4 4 3
8 8 7 9 7 7 7 7 5 6 7 7 7 6 6 4 6 8 7 6 7 6 5 5 5 5 8 8 9 12 9 10 11 7 5 1 2 2 2 1 3 3 2 1
7 10 9 9 8 8 7 5 7 6 5 4 4 5 7 9 9 9 10 9 7 6 4 5 6 7 6 8 8 9 10 8 12 9 8 7 9 7 8 9 6 4 2 5
Wind_Direction
213 220 223 240 233 203 204 208 203 234 229 241 234 218 212 189 192 209 194 184 160 164 170 177 178 179 182 184 181 179 184 189 196 197 200 202 204 202 202 200 197 187 181 187
205 210 218 241 240 237 209 215 228 231 251 217 229 207 208 208 188 173 193 200 170 168 176 179 180 181 181 183 186 184 185 193 193 195 197 201 201 200 196 202 193 188 184 172
206 174 232 236 231 245 245 215 200 213 234 221 263 223 184 206 237 157 226 187 196 174 178 180 182 183 184 185 181 186 191 188 191 192 196 199 194 193 192 195 189 190 181 183
155 129 208 243 193 216 237 240 215 201 187 204 208 210 173 164 141 262 269 207 208 181 166 177 184 186 189 178 182 187 190 191 189 189 196 193 194 191 194 186 196 183 191 181
158 192 317 275 260 210 212 249 223 91 102 92 25 223 229 183 178 189 217 197 182 223 196 183 175 182 182 183 185 186 189 193 191 188 189 191 194 193 188 191 187 179 178 172
175 170 217 173 243 273 93 191 108 100 79 56 47 45 274 22 81 348 264 189 207 237 202 189 186 177 175 182 184 191 194 195 188 186 186 188 185 183 182 172 161 150 147 162
187 195 276 173 228 60 138 232 95 91 78 65 88 180 264 313 313 218 254 214 203 202 172 189 185 168 180 184 189 195 187 167 170 177 179 172 169 170 136 134 135 141 140 140
330 154 257 1 65 186 193 61 72 70 59 40 353 323 311 284 275 285 300 291 217 195 193 183 172 163 173 180 184 163 141 154 140 153 154 150 143 136 146 145 135 136 137 140
315 320 144 58 84 30 78 87 38 62 29 68 59 52 34 27 14 18 25 32 43 119 129 138 154 157 148 147 133 128 131 128 127 117 121 129 128 133 132 125 141 141 148 149
302 341 64 55 80 80 64 61 53 45 49 64 79 56 52 39 29 23 4 21 73 80 73 48 72 87 119 125 121 118 116 108 108 107 106 107 110 118 122 127 128 139 150 157
284 14 337 55 60 89 88 76 69 58 54 64 69 51 50 43 30 31 21 14 17 83 92 87 82 79 99 111 113 106 105 104 102 97 96 85 62 48 116 94 134 152 161 149
15 356 269 18 17 56 74 70 75 75 64 56 57 55 53 46 33 23 14 43 325 56 81 87 90 87 83 94 102 105 106 108 116 112 108 110 110 77 45 56 62 78 104 125
152 55 49 344 40 18 78 69 68 72 70 79 65 59 43 51 41 28 12 26 36 346 59 77 84 98 92 98 105 108 119 122 119 126 124 127 116 120 117 47 67 60 66 117
125 120 66 4 22 19 55 55 50 57 59 53 96 80 65 34 48 35 24 359 353 35 38 53 70 76 106 112 114 119 118 144 125 140 130 136 137 133 124 119 136 85 36 61
57 72 84 84 39 36 37 47 48 45 43 43 45 39 36 59 57 57 355 335 37 63 58 59 57 78 83 95 105 116 127 146 145 146 150 149 148 165 142 153 142 136 116 59
84 81 82 82 68 62 51 41 42 20 31 32 47 40 32 34 28 26 30 24 43 27 60 64 58 54 72 78 92 92 96 184 145 163 160 164 169 159 157 145 142 159 155 169
61 87 100 89 77 68 72 53 51 19 32 25 15 27 58 40 22 21 26 21 54 41 29 48 45 56 64 51 89 110 107 67 113 110 148 165 167 148 166 150 165 168 173 166
89 63 56 62 62 60 43 42 49 34 24 17 22 11 22 28 80 32 17 27 24 49 49 29 28 24 40 33 24 36 104 127 115 153 169 161 179 151 152 164 162 161 156 160
185 115 106 60 178 143 58 350 3 23 1 0 47 359 344 26 50 87 50 49 34 35 4 61 17 36 46 55 50 18 34 74 122 113 113 91 62 68 91 139 134 138 132 145
223 154 29 34 120 118 357 332 223 269 259 90 200 157 109 66 55 29 51 57 41 358 36 37 50 29 32 78 90 117 103 95 83 61 41 95 121 102 85 94 125 142 145 169
63 108 117 90 69 64 66 65 88 53 39 59 65 58 81 47 60 61 71 55 1 21 60 63 49 37 54 333 26 74 85 72 115 134 137 122 86 103 118 136 171 164 149 178
24 52 78 62 77 66 36 54 70 56 47 43 45 61 68 50 72 53 42 69 27 51 50 53 42 359 29 33 19 116 127 157 136 119 80 121 141 142 146 183 215 178 162 166
347 14 44 50 49 37 38 60 62 60 39 45 34 53 80 97 93 85 56 1 43 76 62 45 18 20 10 4 335 185 151 139 154 128 177 158 106 98 105 178 168 179 160 171
36 47 53 52 46 46 31 15 15 15 52 33 35 70 61 31 22 99 127 97 74 65 65 36 21 17 7 345 360 20 101 101 94 101 101 101 105 93 50 44 177 174 174 176
37 48 44 41 34 23 8 1 15 22 26 43 33 27 5 46 44 8 55 48 1 326 350 55 16 354 359 343 345 344 96 110 108 49 149 133 133 125 131 127 59 106 116 128
45 49 56 52 40 15 1 2 21 29 37 22 23 18 11 11 29 33 7 25 33 45 14 59 35 29 52 37 23 30 44 39 29 2 15 333 169 133 133 196 156 126 83 22
57 52 44 35 21 2 2 24 14 11 33 24 349 347 47 40 34 36 22 18 11 43 43 56 51 33 58 49 47 41 32 40 51 39 21 30 49 37 51 35 17 9 33 31